Memphis International Airport Memphis US
ICAO: KMEM
IATA: MEM
Category: Large
Scheduled Services: Yes

Elevation: 341 ft
TransAlt. 18000 ft.

Airport Communications:
APP:33.83
APP:119.1
ATIS:127.75
CLNC DEL:125.2
DEP:124.15
GND:121.65
ANG COMD POST:138.95
JACKSON RDO:122.2
TWR:118.3
UNICOM:122.95

KMEM Zoom In..

Runways:

(A) RW 09 length 8946 ft width 150 ft
ILS 109.50 / hdg 91

(B) RW 18C length 11120 ft width 150 ft
ILS 111.95 / hdg 178

(C) RW 18L length 9000 ft width 150 ft
ILS 111.15 / hdg 178

(D) RW 18R length 9320 ft width 150 ft
ILS 109.90 / hdg 178

(E) RW 27 length 8946 ft width 150 ft
ILS 108.70 / hdg 271

(F) RW 36C length 11120 ft width 150 ft
ILS 110.50 / hdg 358

(G) RW 36L length 9320 ft width 150 ft
ILS 108.90 / hdg 358

(H) RW 36R length 9000 ft width 150 ft
ILS 111.35 / hdg 358

Location; KMEM
Day. 23 / Time. 09.54 Zulu
* Altimeter: 29.87
* Temperature: 22° c. 71.6°f.
* Wind from: 360° Speed 07 kn.
Dewpoint: 18° c.
Visibility: 10 Statute Miles.
Clouds: Clear (automated report).

KMEM 230954Z 36007KT 10SM CLR 22/18 A2987 RMK AO2 SLP111 T02220178 $


Wind From 360°
Speed 07 kn.

 
 
jpsmedia.com for Web Design worldairports.se 2018   terms of use